Location: Unspecified
(0.0000°N, 0.0000°E)
Time: 13:33:03
(UTC+00:00)

ISS - Pass Details

Date: 18 June 2021
Orbit: 417 x 422 km, 51.6° (Epoch: 18 June)

Event Time Altitude Azimuth Distance (km) Brightness Sun altitude
Exits shadow 04:21:43 37° 123° (ESE) 669 -2.6 -22.7°
Drops below altitude 10° 04:24:47 10° 56° (ENE) 1,489 0.2 -22.0°
Sets 04:26:58 0° 48° (NE) 2,348 1.4 -21.5°
